Location: Praha
(50.0830°N, 14.4670°E)
Time: 16:01:15
(UTC+02:00)

ISS - Pass Details

Date: 25 May 2020
Orbit: 417 x 420 km, 51.6° (Epoch: 25 May)

Event Time Altitude Azimuth Distance (km) Brightness Sun altitude
Rises 00:44:21 0° 285° (WNW) 2,368 0.3 -18.9°
Reaches altitude 10° 00:46:42 10° 271° (W) 1,501 -0.9 -18.9°
Enters shadow 00:47:37 15° 260° (W) 1,220 -1.5 -18.9°
